Regional Weather Roundup
Issued by NWS

Home | Current Version | Previous Version | Graphics & Text | Print | Product List | Glossary On
Versions: 1 2 3 4 5 6 7 8 9 10 11 12 13 14 15 16 17 18 19 20 21 22 23 24 25 26 27 28 29 30 31 32 33 34 35 36 37 38 39 40 41 42 43 44 45 46 47 48 49 50
000
ASUS43 KMPX 272301
RWRMN
WEATHER ROUNDUP FOR MINNESOTA
NATIONAL WEATHER SERVICE TWIN CITIES/CHANHASSEN MN
600 PM CDT SUN JUL 27 2014


NOTE: "FAIR" INDICATES FEW OR NO CLOUDS BELOW 12,000 FEET WITH NO
SIGNIFICANT WEATHER AND/OR OBSTRUCTIONS TO VISIBILITY. N/A MEANS
CURRENT SKY AND/OR WEATHER CONDITIONS ARE NOT AVAILABLE.

MNZ060>063-068>070-280000-
   Twin Cities Metro

CITY           SKY/WX    TMP DP  RH WIND       PRES   REMARKS
TWIN CITIES    PTSUNNY   72  59  63 N20G26    30.00R
ST PAUL        PTSUNNY   73  60  63 N16G22    30.00R
CRYSTAL        PTSUNNY   72  58  61 N15G24    30.00R
BLAINE         PTSUNNY   72  61  68 N17G25    30.01R
LAKEVILLE      MOSUNNY   73  57  56 N15       29.99R
EDEN PRAIRIE   CLOUDY    68  61  78 N12G18    30.00R
SOUTH ST PAUL  PTSUNNY   73  58  59 N15G22    29.99R
LAKE ELMO      PTSUNNY   70  61  73 N13G18    30.01R
$$
MNZ001>005-007-008-013>017-022>024-027-028-280000-
   Northwest Minnesota

CITY           SKY/WX    TMP DP  RH WIND       PRES   REMARKS
BEMIDJI        CLOUDY    64  56  74 N12G18    30.12R
HALLOCK        MOSUNNY   66  55  68 N8        30.18R
ROSEAU         PTSUNNY   66  57  72 N8        30.16R
WARROAD        CLOUDY    68  54  60 NW6       30.15S
THIEF RVR FALL CLOUDY    64  55  72 N9        30.17R
CROOKSTON      CLOUDY    66  57  72 N13       30.18R
FOSSTON        CLOUDY    63  57  82 N10       30.15S
DETROIT LAKES  PTSUNNY   64  59  82 N13G21    30.15R
MOORHEAD       CLOUDY    66  61  82 N16       30.16S
PARK RAPIDS    PTSUNNY   64  60  87 NW13      30.10R
$$
MNZ006-009>011-018-025>026-280000-
   North Central Minnesota

CITY           SKY/WX    TMP DP  RH WIND       PRES   REMARKS
BAUDETTE       MOSUNNY   70  52  52 N7        30.13R
FLAG ISLAND    MOSUNNY   70  52  52 N9        30.12S
INTL FALLS     SUNNY     70  51  51 N12       30.09R
WASKISH        CLOUDY    66  55  68 CALM      30.12S
BIG FORK       PTSUNNY   64  55  72 N6        30.10S
LONGVILLE      CLOUDY    64  57  77 N6        30.10R
GRAND RAPIDS   CLOUDY    64  55  72 N8        30.10R
CRANE LAKE     MOSUNNY   68  52  56 N6        30.08R
ORR            MOSUNNY   66  52  59 CALM      30.06R
COOK           MOSUNNY   64  54  68 N5        30.08S
$$
MNZ012-019>021-037-280000-
   Northeast Minnesota

CITY           SKY/WX    TMP DP  RH WIND       PRES   REMARKS
DULUTH         PTSUNNY   60  55  83 CALM      30.06S
ELY            SUNNY     66  48  52 N6        30.05S
HIBBING        PTSUNNY   68  54  60 NW12      30.08R
EVELETH        CLOUDY    63  52  67 N3        30.08R
DULUTH HARBOR  CLOUDY    63  55  77 W5        30.06S
TWO HARBORS    CLOUDY    61  52  72 W5        30.03S
SILVER BAY     SUNNY     64  59  82 CALM      30.01S
GRAND MARAIS     N/A     73  52  47 VRB6      29.98R
G MARAIS ARPRT   N/A     64  46  52 N10       30.04R
$$
MNZ029>031-032-039>041-046>048-054>057-064-280000-
   West Central Minnesota

CITY           SKY/WX    TMP DP  RH WIND       PRES   REMARKS
FERGUS FALLS   CLOUDY    66  55  68 N13G20    30.14R
WHEATON        PTSUNNY   64  55  72 NW17G23   30.17S
MORRIS         MOSUNNY   70  57  64 NW20G25   30.12R
ALEXANDRIA     PTSUNNY   70  58  65 NW17      30.11R
ELBOW LAKE     CLOUDY    66  58  73 NW16G24   30.13R
WADENA         PTSUNNY   63  61  94 N9        30.10R
GLENWOOD       MOSUNNY   72  59  64 NW20G28   30.10
APPLETON       PTSUNNY   72  55  56 NW21      30.12S
BENSON         PTSUNNY   72  59  64 N21       30.10S
ORTONVILLE     CLOUDY    66  55  68 NW16      30.15R
MADISON        SUNNY     72  59  64 NW15G24   30.14R
WILLMAR        FAIR      72  57  60 NW23G31   30.09R
$$
MNZ033>034-036-042>043-049>051-058-059-280000-
   Central Minnesota

CITY           SKY/WX    TMP DP  RH WIND       PRES   REMARKS
ST CLOUD       MOSUNNY   73  59  61 NE12G20   30.04R
SAUK CENTRE    CLOUDY    67  62  84 N10       30.09R
PAYNESVILLE    RAIN      66  60  81 NW7G14    30.07R
AITKIN         CLOUDY    68  59  73 N12G17    30.06R
PINE RIVER     CLOUDY    70  57  64 N13       30.12R
BRAINERD       MOSUNNY   69  56  62 NE13      30.07R
STAPLES        HVY RAIN  64  61  88 N5G28     30.09R
LONG PRAIRIE   LGT RAIN  64  61  88 W12G18    30.09R
LITTLE FALLS   PTSUNNY   70  55  60 N6        30.06R
LITCHFIELD     LGT RAIN  72  63  73 NW16G23   30.06R
BUFFALO        PTSUNNY   73  57  58 N9G16     30.04R
MAPLE LAKE     PTSUNNY   70  61  73 NE14      30.05R
$$
MNZ037-044-045-052-053-280000-
   East Central Minnesota

CITY           SKY/WX    TMP DP  RH WIND       PRES   REMARKS
PRINCETON      MOSUNNY   70  61  73 N15G21    30.05R
MORA           MOSUNNY   64  59  82 N3        30.07R
CAMBRIDGE      MOSUNNY   70  57  64 N9        30.02R
RUSH CITY      PTSUNNY   68  59  72 N9        30.04R
MOOSE LAKE     CLOUDY    59  55  88 NE3       30.06R
HINCKLEY       CLOUDY    63  59  88 N12       30.06R
CLOQUET        CLOUDY    59  55  88 CALM      30.07S
MCGREGOR       CLOUDY    61  59  94 E5        30.08R
$$
MNZ071>073-080-081-089-090-097-098-280000-
   Southwest Minnesota

CITY           SKY/WX    TMP DP  RH WIND       PRES   REMARKS
MONTEVIDEO     MOSUNNY   72  59  64 N16       30.11F
GRANITE FALLS  PTSUNNY   70  58  67 NW17G24   30.12S
CANBY          CLOUDY    69  57  63 NW14G22   30.15S
MARSHALL       PTSUNNY   70  55  60 N21G28    30.11S
REDWOOD FALLS  MOSUNNY   73  58  59 NW21G30   30.07R
OLIVIA         SUNNY     73  59  60 NW17G25   30.07R
PIPESTONE      PTSUNNY   66  55  68 N18       30.15S
WINDOM         MOSUNNY   70  57  64 NW20G29   30.09S
WORTHINGTON    MOSUNNY   70  55  60 NW17G25   30.13S
JACKSON        PTSUNNY   70  55  60 NW20      30.10R
TRACY          CLOUDY    69  58  69 NW16G24   30.12S
SLAYTON        CLOUDY    68  56  66 NW17G24   30.14S
$$
MNZ065>067-074>077-082>085-091>093-280000-
   South Central Minnesota

CITY           SKY/WX    TMP DP  RH WIND       PRES   REMARKS
MANKATO        CLOUDY    70  57  64 NW13G20   30.02R
NEW ULM        MOSUNNY   73  61  64 NW23G33   30.04S
ST JAMES       MOSUNNY   75  57  53 NW16G28   30.06R
FAIRMONT       CLOUDY    72  55  56 NW21G26   30.05R
GLENCOE        MOSUNNY   68  61  79 NW10      30.03R
FARIBAULT      PTSUNNY   77  55  47 N12G17    29.99R
OWATONNA       MOSUNNY   73  61  64 NW14      29.99R
WASECA         SUNNY     72  55  56 NW13G23   30.01F
ALBERT LEA     MOSUNNY   72  61  68 NW12G21   30.00R
$$
MNZ078>079-086>088-094>096-280000-
   Southeast Minnesota

CITY           SKY/WX    TMP DP  RH WIND       PRES   REMARKS
ROCHESTER      PTSUNNY   74  58  57 NW18G25   29.98R
RED WING       MOSUNNY   72  61  68 N13G18    29.96R
STANTON        PTSUNNY   75  58  54 N13G22    29.97R
DODGE CENTER   MOSUNNY   73  61  64 N9        29.98S
WINONA         PTSUNNY   70  64  83 NW9       29.94R
AUSTIN         PTSUNNY   73  59  60 NW15G23   29.98R
PRESTON        SUNNY     72  62  70 N21G26    29.96R
$$
ABBREVIATIONS USED IN REMARKS
   TC - TEMPERATURES IN CELSIUS
  WCI - WIND CHILL INDEX
   HX - HEAT INDEX
  VSB - VISIBILITY
$$



USA.gov is the U.S. government's official web portal to all federal, state and local government web resources and services.